Time,TemperatureF,DewpointF,PressureIn,WindDirection,WindDirectionDegrees,WindSpeedMPH,WindSpeedGustMPH,Humidity,HourlyPrecipIn,Conditions,Clouds,dailyrainin,SoftwareType,DateUTC
2017-02-26 00:04:00,54.7,46.9,29.97,SW,228,0.0,0.0,75,0.00,,,0.00,WeatherTracker,2017-02-26 08:04:00,
2017-02-26 00:09:00,54.7,46.9,29.97,SW,228,0.0,0.0,75,0.00,,,0.00,WeatherTracker,2017-02-26 08:09:00,
2017-02-26 00:14:00,54.7,46.9,29.98,SW,228,0.0,0.0,75,0.00,,,0.00,WeatherTracker,2017-02-26 08:14:00,
2017-02-26 00:19:00,54.7,47.3,29.98,SW,228,0.0,0.0,76,0.00,,,0.00,WeatherTracker,2017-02-26 08:19:00,
2017-02-26 00:24:00,55.3,47.9,29.98,SW,228,0.0,0.0,76,0.00,,,0.00,WeatherTracker,2017-02-26 08:24:00,
2017-02-26 00:30:00,55.0,47.9,29.97,SW,228,0.0,0.0,77,0.00,,,0.00,WeatherTracker,2017-02-26 08:30:00,
2017-02-26 00:35:00,55.1,48.0,29.97,SW,228,0.0,0.0,77,0.00,,,0.00,WeatherTracker,2017-02-26 08:35:00,
2017-02-26 00:40:00,55.0,47.9,29.97,SW,228,0.0,0.0,77,0.00,,,0.00,WeatherTracker,2017-02-26 08:40:00,
2017-02-26 00:45:00,55.0,47.9,29.97,SW,228,0.0,0.0,77,0.00,,,0.00,WeatherTracker,2017-02-26 08:45:00,
2017-02-26 00:50:00,54.5,47.4,29.97,SW,228,0.0,0.0,77,0.00,,,0.00,WeatherTracker,2017-02-26 08:50:00,
2017-02-26 00:55:00,54.5,47.4,29.97,SW,228,0.0,0.0,77,0.00,,,0.00,WeatherTracker,2017-02-26 08:55:00,
2017-02-26 01:00:00,54.5,47.1,29.97,SW,228,0.0,0.0,76,0.00,,,0.00,WeatherTracker,2017-02-26 09:00:00,
2017-02-26 01:05:00,54.4,47.0,29.97,SW,228,0.0,0.0,76,0.00,,,0.00,WeatherTracker,2017-02-26 09:05:00,
2017-02-26 01:10:00,54.5,47.4,29.97,SW,228,0.0,0.0,77,0.00,,,0.00,WeatherTracker,2017-02-26 09:10:00,
2017-02-26 01:15:00,54.4,47.7,29.97,SW,228,0.0,0.0,78,0.00,,,0.00,WeatherTracker,2017-02-26 09:15:00,
2017-02-26 01:20:00,54.4,47.7,29.97,SW,228,0.0,0.0,78,0.00,,,0.00,WeatherTracker,2017-02-26 09:20:00,
2017-02-26 01:25:00,54.5,47.8,29.97,SW,228,0.0,0.0,78,0.00,,,0.00,WeatherTracker,2017-02-26 09:25:00,
2017-02-26 01:30:00,54.4,47.7,29.96,SW,228,0.0,0.0,78,0.00,,,0.00,WeatherTracker,2017-02-26 09:30:00,
2017-02-26 01:35:00,54.4,47.7,29.96,SW,228,0.0,0.0,78,0.00,,,0.00,WeatherTracker,2017-02-26 09:35:00,
2017-02-26 01:40:00,54.4,47.7,29.96,SW,228,0.0,0.0,78,0.00,,,0.00,WeatherTracker,2017-02-26 09:40:00,
2017-02-26 01:45:00,54.4,47.7,29.96,SW,228,0.0,0.0,78,0.00,,,0.00,WeatherTracker,2017-02-26 09:45:00,
2017-02-26 01:51:00,54.4,48.0,29.96,SW,228,0.0,0.0,79,0.00,,,0.00,WeatherTracker,2017-02-26 09:51:00,
2017-02-26 01:56:00,54.2,47.8,29.96,SW,228,0.0,0.0,79,0.00,,,0.00,WeatherTracker,2017-02-26 09:56:00,
2017-02-26 01:58:00,54.4,48.0,29.96,SW,228,1.0,0.0,79,0.00,,,0.00,WeatherTracker,2017-02-26 09:58:00,
2017-02-26 02:03:00,54.1,47.7,29.95,SW,228,0.0,0.0,79,0.00,,,0.00,WeatherTracker,2017-02-26 10:03:00,
2017-02-26 02:08:00,54.2,47.5,29.95,SW,228,0.0,0.0,78,0.00,,,0.00,WeatherTracker,2017-02-26 10:08:00,
2017-02-26 02:13:00,54.5,47.8,29.95,SW,228,0.0,0.0,78,0.00,,,0.00,WeatherTracker,2017-02-26 10:13:00,
2017-02-26 02:18:00,54.4,47.3,29.95,SW,228,0.0,0.0,77,0.00,,,0.00,WeatherTracker,2017-02-26 10:18:00,
2017-02-26 02:23:00,54.4,47.7,29.95,SW,228,0.0,0.0,78,0.00,,,0.00,WeatherTracker,2017-02-26 10:23:00,
2017-02-26 02:28:00,54.4,47.7,29.95,SW,228,0.0,0.0,78,0.00,,,0.00,WeatherTracker,2017-02-26 10:28:00,
2017-02-26 02:33:00,54.4,47.7,29.95,SW,228,1.0,0.0,78,0.00,,,0.00,WeatherTracker,2017-02-26 10:33:00,
2017-02-26 02:38:00,54.5,47.4,29.95,SW,228,0.0,0.0,77,0.00,,,0.00,WeatherTracker,2017-02-26 10:38:00,
2017-02-26 02:43:00,54.5,47.4,29.94,SW,228,0.0,0.0,77,0.00,,,0.00,WeatherTracker,2017-02-26 10:43:00,
2017-02-26 02:48:00,54.5,47.8,29.94,SW,228,0.0,0.0,78,0.00,,,0.00,WeatherTracker,2017-02-26 10:48:00,
2017-02-26 02:54:00,54.4,47.7,29.94,SW,228,0.0,0.0,78,0.00,,,0.00,WeatherTracker,2017-02-26 10:54:00,
2017-02-26 02:59:00,54.4,47.7,29.94,SW,228,0.0,0.0,78,0.00,,,0.00,WeatherTracker,2017-02-26 10:59:00,
2017-02-26 03:04:00,54.2,47.5,29.94,SW,228,0.0,0.0,78,0.00,,,0.00,WeatherTracker,2017-02-26 11:04:00,
2017-02-26 03:09:00,54.1,47.4,29.94,SW,228,0.0,0.0,78,0.00,,,0.00,WeatherTracker,2017-02-26 11:09:00,
2017-02-26 03:14:00,53.9,46.9,29.95,SW,228,0.0,0.0,77,0.00,,,0.00,WeatherTracker,2017-02-26 11:14:00,
2017-02-26 03:19:00,53.8,47.1,29.95,SW,228,0.0,0.0,78,0.00,,,0.00,WeatherTracker,2017-02-26 11:19:00,
2017-02-26 03:24:00,53.6,46.6,29.95,SW,228,2.0,0.0,77,0.00,,,0.00,WeatherTracker,2017-02-26 11:24:00,
2017-02-26 03:29:00,53.5,46.5,29.94,SW,228,0.0,0.0,77,0.00,,,0.00,WeatherTracker,2017-02-26 11:29:00,
2017-02-26 03:34:00,53.5,46.5,29.94,SW,228,0.0,0.0,77,0.00,,,0.00,WeatherTracker,2017-02-26 11:34:00,
2017-02-26 03:39:00,53.5,46.5,29.94,SW,228,0.0,0.0,77,0.00,,,0.00,WeatherTracker,2017-02-26 11:39:00,
2017-02-26 03:44:00,53.9,46.9,29.94,SW,228,0.0,0.0,77,0.00,,,0.00,WeatherTracker,2017-02-26 11:44:00,
2017-02-26 03:49:00,53.8,46.8,29.94,SW,228,0.0,0.0,77,0.00,,,0.00,WeatherTracker,2017-02-26 11:49:00,
2017-02-26 03:54:00,53.6,46.6,29.94,SW,228,0.0,0.0,77,0.00,,,0.00,WeatherTracker,2017-02-26 11:54:00,
2017-02-26 03:59:00,53.8,46.8,29.93,SW,228,0.0,0.0,77,0.00,,,0.00,WeatherTracker,2017-02-26 11:59:00,
2017-02-26 04:04:00,53.8,46.8,29.93,SW,228,0.0,0.0,77,0.00,,,0.00,WeatherTracker,2017-02-26 12:04:00,
2017-02-26 04:09:00,53.8,46.8,29.93,SW,228,0.0,0.0,77,0.00,,,0.00,WeatherTracker,2017-02-26 12:09:00,
2017-02-26 04:14:00,53.8,47.1,29.94,SW,228,0.0,0.0,78,0.00,,,0.00,WeatherTracker,2017-02-26 12:14:00,
2017-02-26 04:19:00,53.6,46.9,29.94,SW,228,0.0,0.0,78,0.00,,,0.00,WeatherTracker,2017-02-26 12:19:00,
2017-02-26 04:24:00,53.5,46.8,29.94,SW,228,0.0,0.0,78,0.00,,,0.00,WeatherTracker,2017-02-26 12:24:00,
2017-02-26 04:29:00,53.5,46.8,29.94,SW,228,0.0,0.0,78,0.00,,,0.00,WeatherTracker,2017-02-26 12:29:00,
2017-02-26 04:34:00,53.5,46.8,29.94,SW,228,0.0,0.0,78,0.00,,,0.00,WeatherTracker,2017-02-26 12:34:00,
2017-02-26 04:39:00,53.5,46.8,29.94,SW,228,0.0,0.0,78,0.00,,,0.00,WeatherTracker,2017-02-26 12:39:00,
2017-02-26 04:44:00,53.5,46.8,29.93,SW,228,0.0,0.0,78,0.00,,,0.00,WeatherTracker,2017-02-26 12:44:00,
2017-02-26 04:49:00,53.5,46.8,29.93,SW,228,0.0,0.0,78,0.00,,,0.00,WeatherTracker,2017-02-26 12:49:00,
2017-02-26 04:54:00,53.5,46.8,29.93,SW,228,0.0,0.0,78,0.00,,,0.00,WeatherTracker,2017-02-26 12:54:00,
2017-02-26 05:00:00,53.9,46.9,29.95,SW,229,5.0,0.0,77,0.00,,,0.00,WeatherTracker,2017-02-26 13:00:00,
2017-02-26 05:05:00,54.5,47.1,29.95,SW,236,5.0,0.0,76,0.00,,,0.00,WeatherTracker,2017-02-26 13:05:00,
2017-02-26 05:10:00,55.0,46.9,29.95,SW,236,0.0,0.0,74,0.00,,,0.00,WeatherTracker,2017-02-26 13:10:00,
2017-02-26 05:15:00,55.1,47.0,29.94,WSW,237,0.0,0.0,74,0.00,,,0.00,WeatherTracker,2017-02-26 13:15:00,
2017-02-26 05:20:00,55.3,47.5,29.94,WSW,237,2.0,0.0,75,0.00,,,0.00,WeatherTracker,2017-02-26 13:20:00,
2017-02-26 05:25:00,55.3,47.9,29.94,WSW,237,1.0,0.0,76,0.00,,,0.00,WeatherTracker,2017-02-26 13:25:00,
2017-02-26 05:30:00,55.1,48.0,29.95,WSW,237,1.0,0.0,77,0.01,,,0.01,WeatherTracker,2017-02-26 13:30:00,
2017-02-26 05:35:00,54.7,48.0,29.95,WSW,237,0.0,0.0,78,0.01,,,0.01,WeatherTracker,2017-02-26 13:35:00,
2017-02-26 05:40:00,54.5,47.8,29.95,WSW,237,0.0,0.0,78,0.01,,,0.01,WeatherTracker,2017-02-26 13:40:00,
2017-02-26 05:45:00,54.4,47.7,29.94,WSW,237,0.0,0.0,78,0.01,,,0.01,WeatherTracker,2017-02-26 13:45:00,
2017-02-26 05:50:00,54.4,47.7,29.94,WSW,237,0.0,0.0,78,0.01,,,0.01,WeatherTracker,2017-02-26 13:50:00,
2017-02-26 05:55:00,54.1,48.1,29.94,WSW,237,0.0,0.0,80,0.01,,,0.01,WeatherTracker,2017-02-26 13:55:00,
2017-02-26 06:00:00,53.8,48.1,29.95,WSW,237,0.0,0.0,81,0.01,,,0.01,WeatherTracker,2017-02-26 14:00:00,
2017-02-26 06:05:00,53.6,48.2,29.95,WSW,237,0.0,0.0,82,0.01,,,0.01,WeatherTracker,2017-02-26 14:05:00,
2017-02-26 06:10:00,53.5,48.1,29.95,WSW,237,0.0,0.0,82,0.01,,,0.01,WeatherTracker,2017-02-26 14:10:00,
2017-02-26 06:15:00,53.1,48.1,29.94,WSW,237,2.0,0.0,83,0.01,,,0.01,WeatherTracker,2017-02-26 14:15:00,
2017-02-26 06:20:00,52.8,48.4,29.94,WSW,237,1.0,0.0,85,0.01,,,0.01,WeatherTracker,2017-02-26 14:20:00,
2017-02-26 06:25:00,52.9,48.8,29.94,WSW,237,0.0,0.0,86,0.01,,,0.01,WeatherTracker,2017-02-26 14:25:00,
2017-02-26 06:30:00,53.1,49.3,29.95,WSW,237,0.0,0.0,87,0.00,,,0.01,WeatherTracker,2017-02-26 14:30:00,
2017-02-26 06:35:00,53.1,49.3,29.95,WSW,237,0.0,0.0,87,0.00,,,0.01,WeatherTracker,2017-02-26 14:35:00,
2017-02-26 06:40:00,53.1,49.3,29.95,WSW,237,0.0,0.0,87,0.00,,,0.01,WeatherTracker,2017-02-26 14:40:00,
2017-02-26 06:45:00,52.9,49.4,29.96,WSW,237,0.0,0.0,88,0.00,,,0.01,WeatherTracker,2017-02-26 14:45:00,
2017-02-26 06:50:00,52.9,49.4,29.96,WSW,237,0.0,0.0,88,0.00,,,0.01,WeatherTracker,2017-02-26 14:50:00,
2017-02-26 06:55:00,53.1,49.9,29.96,WSW,237,0.0,0.0,89,0.00,,,0.01,WeatherTracker,2017-02-26 14:55:00,
2017-02-26 07:00:00,53.1,49.9,29.97,WSW,237,0.0,0.0,89,0.00,,,0.01,WeatherTracker,2017-02-26 15:00:00,
2017-02-26 07:05:00,53.3,50.1,29.97,WSW,237,0.0,0.0,89,0.00,,,0.01,WeatherTracker,2017-02-26 15:05:00,
2017-02-26 07:10:00,53.5,50.3,29.97,WSW,237,0.0,0.0,89,0.00,,,0.01,WeatherTracker,2017-02-26 15:10:00,
2017-02-26 07:15:00,53.5,50.3,29.97,WSW,237,0.0,0.0,89,0.00,,,0.01,WeatherTracker,2017-02-26 15:15:00,
2017-02-26 07:20:00,53.6,50.7,29.97,WSW,237,1.0,0.0,90,0.00,,,0.01,WeatherTracker,2017-02-26 15:20:00,
2017-02-26 07:25:00,53.5,50.6,29.97,WSW,237,2.0,0.0,90,0.00,,,0.01,WeatherTracker,2017-02-26 15:25:00,
2017-02-26 07:30:00,53.5,50.6,29.97,WSW,237,2.0,0.0,90,0.00,,,0.01,WeatherTracker,2017-02-26 15:30:00,
2017-02-26 07:36:00,53.8,50.9,29.97,WSW,237,1.0,0.0,90,0.00,,,0.01,WeatherTracker,2017-02-26 15:36:00,
2017-02-26 07:41:00,53.9,50.7,29.97,WSW,237,0.0,0.0,89,0.00,,,0.01,WeatherTracker,2017-02-26 15:41:00,
2017-02-26 07:46:00,54.1,50.3,29.98,WSW,237,0.0,0.0,87,0.00,,,0.01,WeatherTracker,2017-02-26 15:46:00,
2017-02-26 07:51:00,54.2,50.1,29.98,WSW,237,0.0,0.0,86,0.00,,,0.01,WeatherTracker,2017-02-26 15:51:00,
2017-02-26 07:56:00,54.4,50.3,29.98,WSW,237,0.0,0.0,86,0.00,,,0.01,WeatherTracker,2017-02-26 15:56:00,
2017-02-26 08:01:00,54.7,50.6,29.98,WSW,237,0.0,0.0,86,0.00,,,0.01,WeatherTracker,2017-02-26 16:01:00,
2017-02-26 08:06:00,55.0,50.6,29.98,SE,144,1.0,0.0,85,0.00,,,0.01,WeatherTracker,2017-02-26 16:06:00,
2017-02-26 08:11:00,54.7,49.6,29.98,SE,130,5.0,0.0,83,0.00,,,0.01,WeatherTracker,2017-02-26 16:11:00,
2017-02-26 08:16:00,55.0,49.6,29.98,SE,130,1.0,0.0,82,0.00,,,0.01,WeatherTracker,2017-02-26 16:16:00,
2017-02-26 08:21:00,55.0,49.3,29.98,SE,130,1.0,0.0,81,0.00,,,0.01,WeatherTracker,2017-02-26 16:21:00,
2017-02-26 08:26:00,55.3,49.6,29.98,SE,134,4.0,0.0,81,0.00,,,0.01,WeatherTracker,2017-02-26 16:26:00,
2017-02-26 08:31:00,55.1,49.4,29.99,SE,134,2.0,0.0,81,0.00,,,0.01,WeatherTracker,2017-02-26 16:31:00,
2017-02-26 08:36:00,55.1,49.7,29.99,SE,132,2.0,0.0,82,0.00,,,0.01,WeatherTracker,2017-02-26 16:36:00,
2017-02-26 08:41:00,54.8,49.1,29.99,ESE,123,1.0,0.0,81,0.00,,,0.01,WeatherTracker,2017-02-26 16:41:00,
2017-02-26 08:46:00,55.1,49.7,29.99,ESE,123,4.0,0.0,82,0.00,,,0.01,WeatherTracker,2017-02-26 16:46:00,
2017-02-26 08:51:00,55.3,49.6,29.99,ESE,123,4.0,0.0,81,0.00,,,0.01,WeatherTracker,2017-02-26 16:51:00,
2017-02-26 08:56:00,55.4,50.0,29.99,SE,124,0.0,0.0,82,0.00,,,0.01,WeatherTracker,2017-02-26 16:56:00,
2017-02-26 09:01:00,55.7,50.3,29.99,ESE,123,1.0,0.0,82,0.00,,,0.01,WeatherTracker,2017-02-26 17:01:00,
2017-02-26 09:06:00,55.9,50.5,29.99,SE,124,2.0,0.0,82,0.00,,,0.01,WeatherTracker,2017-02-26 17:06:00,
2017-02-26 09:11:00,56.0,50.6,29.99,SE,124,0.0,0.0,82,0.00,,,0.01,WeatherTracker,2017-02-26 17:11:00,
2017-02-26 09:16:00,56.0,50.6,29.99,SE,124,1.0,0.0,82,0.00,,,0.01,WeatherTracker,2017-02-26 17:16:00,
2017-02-26 09:21:00,56.0,49.9,29.99,SE,141,4.0,0.0,80,0.00,,,0.01,WeatherTracker,2017-02-26 17:21:00,
2017-02-26 09:26:00,56.0,49.9,29.99,South,178,2.0,0.0,80,0.00,,,0.01,WeatherTracker,2017-02-26 17:26:00,
2017-02-26 09:31:00,56.0,49.9,29.99,SSE,163,0.0,0.0,80,0.00,,,0.01,WeatherTracker,2017-02-26 17:31:00,
2017-02-26 09:36:00,56.2,49.8,29.99,SSE,164,1.0,0.0,79,0.00,,,0.01,WeatherTracker,2017-02-26 17:36:00,
2017-02-26 09:41:00,56.5,49.4,29.99,SSE,165,2.0,0.0,77,0.00,,,0.01,WeatherTracker,2017-02-26 17:41:00,
2017-02-26 09:46:00,56.7,48.9,29.98,SSW,209,1.0,0.0,75,0.00,,,0.01,WeatherTracker,2017-02-26 17:46:00,
2017-02-26 09:51:00,57.2,48.6,29.98,SSW,207,4.0,0.0,73,0.00,,,0.01,WeatherTracker,2017-02-26 17:51:00,
2017-02-26 09:57:00,57.3,48.0,29.98,SSE,147,1.0,0.0,71,0.00,,,0.01,WeatherTracker,2017-02-26 17:57:00,
2017-02-26 10:02:00,57.8,48.1,29.98,SE,140,2.0,0.0,70,0.00,,,0.01,WeatherTracker,2017-02-26 18:02:00,
2017-02-26 10:07:00,58.4,49.0,29.98,SSW,209,6.0,0.0,71,0.00,,,0.01,WeatherTracker,2017-02-26 18:07:00,
2017-02-26 10:08:00,58.3,48.6,29.98,SSW,209,3.0,0.0,70,0.00,,,0.01,WeatherTracker,2017-02-26 18:08:00,
2017-02-26 10:13:00,58.6,48.8,29.98,SSW,205,3.0,0.0,70,0.00,,,0.01,WeatherTracker,2017-02-26 18:13:00,
2017-02-26 10:18:00,58.4,48.7,29.98,South,186,2.0,0.0,70,0.00,,,0.01,WeatherTracker,2017-02-26 18:18:00,
2017-02-26 10:23:00,58.7,48.6,29.98,SSE,157,3.0,0.0,69,0.00,,,0.01,WeatherTracker,2017-02-26 18:23:00,
2017-02-26 10:28:00,59.2,49.0,29.98,SSE,148,3.0,0.0,69,0.00,,,0.01,WeatherTracker,2017-02-26 18:28:00,
2017-02-26 10:33:00,59.2,48.6,29.98,SSE,159,2.0,0.0,68,0.00,,,0.01,WeatherTracker,2017-02-26 18:33:00,
2017-02-26 10:38:00,58.7,48.6,29.98,SE,137,3.0,0.0,69,0.00,,,0.01,WeatherTracker,2017-02-26 18:38:00,
2017-02-26 10:43:00,58.9,49.5,29.98,SE,138,0.0,0.0,71,0.00,,,0.01,WeatherTracker,2017-02-26 18:43:00,
2017-02-26 10:48:00,59.2,49.4,29.98,SSW,192,4.0,0.0,70,0.00,,,0.01,WeatherTracker,2017-02-26 18:48:00,
2017-02-26 10:53:00,59.5,48.9,29.98,SSW,211,7.0,0.0,68,0.00,,,0.01,WeatherTracker,2017-02-26 18:53:00,
2017-02-26 10:58:00,59.8,50.0,29.98,SE,125,6.0,0.0,70,0.00,,,0.01,WeatherTracker,2017-02-26 18:58:00,
2017-02-26 11:03:00,60.1,49.1,29.97,SSW,200,0.0,0.0,67,0.00,,,0.01,WeatherTracker,2017-02-26 19:03:00,
2017-02-26 11:08:00,60.7,50.1,29.97,South,173,3.0,0.0,68,0.00,,,0.01,WeatherTracker,2017-02-26 19:08:00,
2017-02-26 11:13:00,60.1,49.5,29.97,SSW,196,1.0,0.0,68,0.00,,,0.01,WeatherTracker,2017-02-26 19:13:00,
2017-02-26 11:18:00,59.5,49.7,29.97,SSW,192,2.0,0.0,70,0.00,,,0.01,WeatherTracker,2017-02-26 19:18:00,
2017-02-26 11:23:00,59.5,50.5,29.97,SSW,207,2.0,0.0,72,0.00,,,0.01,WeatherTracker,2017-02-26 19:23:00,
2017-02-26 11:28:00,59.5,51.6,29.97,WSW,240,2.0,0.0,75,0.00,,,0.01,WeatherTracker,2017-02-26 19:28:00,
2017-02-26 11:33:00,59.9,50.1,29.97,SW,214,3.0,0.0,70,0.00,,,0.01,WeatherTracker,2017-02-26 19:33:00,
2017-02-26 11:38:00,59.8,50.4,29.97,SSW,211,6.0,0.0,71,0.00,,,0.01,WeatherTracker,2017-02-26 19:38:00,
2017-02-26 11:43:00,59.5,49.7,29.97,SW,217,7.0,0.0,70,0.00,,,0.01,WeatherTracker,2017-02-26 19:43:00,
2017-02-26 11:48:00,59.3,50.6,29.96,SSW,210,5.0,0.0,73,0.00,,,0.01,WeatherTracker,2017-02-26 19:48:00,
2017-02-26 11:53:00,59.3,50.6,29.96,SSW,207,1.0,0.0,73,0.00,,,0.01,WeatherTracker,2017-02-26 19:53:00,
2017-02-26 11:58:00,59.2,50.2,29.96,SSW,207,1.0,0.0,72,0.00,,,0.01,WeatherTracker,2017-02-26 19:58:00,
2017-02-26 12:03:00,59.0,50.0,29.96,SSW,203,2.0,0.0,72,0.00,,,0.01,WeatherTracker,2017-02-26 20:03:00,
2017-02-26 12:08:00,59.0,50.0,29.96,WSW,257,1.0,0.0,72,0.00,,,0.01,WeatherTracker,2017-02-26 20:08:00,
2017-02-26 12:13:00,59.2,49.8,29.96,WSW,256,0.0,0.0,71,0.00,,,0.01,WeatherTracker,2017-02-26 20:13:00,
2017-02-26 12:18:00,59.2,49.8,29.95,WSW,256,0.0,0.0,71,0.00,,,0.01,WeatherTracker,2017-02-26 20:18:00,
2017-02-26 12:23:00,59.2,50.5,29.95,WSW,249,1.0,0.0,73,0.00,,,0.01,WeatherTracker,2017-02-26 20:23:00,
2017-02-26 12:28:00,59.0,50.7,29.95,South,170,4.0,0.0,74,0.00,,,0.01,WeatherTracker,2017-02-26 20:28:00,
2017-02-26 12:33:00,59.0,50.7,29.94,SSE,167,2.0,0.0,74,0.00,,,0.01,WeatherTracker,2017-02-26 20:33:00,
2017-02-26 12:38:00,59.3,51.0,29.94,SSE,159,3.0,0.0,74,0.00,,,0.01,WeatherTracker,2017-02-26 20:38:00,
2017-02-26 12:44:00,59.6,50.9,29.94,WNW,299,4.0,0.0,73,0.00,,,0.01,WeatherTracker,2017-02-26 20:44:00,
2017-02-26 12:49:00,60.1,50.3,29.94,SSW,213,6.0,0.0,70,0.00,,,0.01,WeatherTracker,2017-02-26 20:49:00,
2017-02-26 12:54:00,60.5,51.0,29.94,WSW,238,5.0,0.0,71,0.00,,,0.01,WeatherTracker,2017-02-26 20:54:00,
2017-02-26 12:59:00,61.0,50.8,29.93,SW,218,3.0,0.0,69,0.00,,,0.01,WeatherTracker,2017-02-26 20:59:00,
2017-02-26 13:04:00,61.3,51.4,29.93,SW,230,0.0,0.0,70,0.00,,,0.01,WeatherTracker,2017-02-26 21:04:00,
2017-02-26 13:09:00,61.6,52.1,29.93,SW,218,1.0,0.0,71,0.00,,,0.01,WeatherTracker,2017-02-26 21:09:00,
2017-02-26 13:14:00,61.6,51.7,29.92,SW,228,5.0,0.0,70,0.00,,,0.01,WeatherTracker,2017-02-26 21:14:00,
2017-02-26 13:19:00,61.8,51.9,29.92,WSW,241,5.0,0.0,70,0.00,,,0.01,WeatherTracker,2017-02-26 21:19:00,
2017-02-26 13:24:00,61.2,50.9,29.92,WSW,239,13.0,0.0,69,0.00,,,0.01,WeatherTracker,2017-02-26 21:24:00,
2017-02-26 13:29:00,61.0,52.3,29.91,South,184,13.0,0.0,73,0.00,,,0.01,WeatherTracker,2017-02-26 21:29:00,
2017-02-26 13:34:00,61.5,52.8,29.91,SW,236,10.0,0.0,73,0.00,,,0.01,WeatherTracker,2017-02-26 21:34:00,
2017-02-26 13:39:00,60.9,52.9,29.91,SW,233,12.0,0.0,75,0.00,,,0.01,WeatherTracker,2017-02-26 21:39:00,
2017-02-26 13:44:00,59.9,52.3,29.92,WSW,247,6.0,0.0,76,0.00,,,0.01,WeatherTracker,2017-02-26 21:44:00,
2017-02-26 13:49:00,59.6,53.4,29.92,SSW,198,5.0,0.0,80,0.00,,,0.01,WeatherTracker,2017-02-26 21:49:00,
2017-02-26 13:54:00,58.7,52.5,29.92,SSW,209,4.0,0.0,80,0.00,,,0.01,WeatherTracker,2017-02-26 21:54:00,
2017-02-26 13:59:00,58.9,53.1,29.92,SSW,206,12.0,0.0,81,0.00,,,0.01,WeatherTracker,2017-02-26 21:59:00,
2017-02-26 14:04:00,59.2,52.7,29.92,SW,228,4.0,0.0,79,0.00,,,0.01,WeatherTracker,2017-02-26 22:04:00,
2017-02-26 14:09:00,59.5,53.0,29.92,SW,215,4.0,0.0,79,0.00,,,0.01,WeatherTracker,2017-02-26 22:09:00,
2017-02-26 14:14:00,60.4,52.8,29.91,SSW,208,5.0,0.0,76,0.00,,,0.01,WeatherTracker,2017-02-26 22:14:00,
2017-02-26 14:19:00,60.9,52.2,29.91,South,188,2.0,0.0,73,0.00,,,0.01,WeatherTracker,2017-02-26 22:19:00,
2017-02-26 14:24:00,60.7,52.4,29.91,SW,222,4.0,0.0,74,0.00,,,0.01,WeatherTracker,2017-02-26 22:24:00,
2017-02-26 14:29:00,60.7,52.0,29.91,WSW,253,6.0,0.0,73,0.00,,,0.01,WeatherTracker,2017-02-26 22:29:00,
2017-02-26 14:34:00,60.7,52.0,29.91,WSW,240,6.0,0.0,73,0.00,,,0.01,WeatherTracker,2017-02-26 22:34:00,
2017-02-26 14:39:00,60.7,52.0,29.91,SW,227,7.0,0.0,73,0.00,,,0.01,WeatherTracker,2017-02-26 22:39:00,
2017-02-26 14:44:00,59.8,52.2,29.91,SSW,192,2.0,0.0,76,0.00,,,0.01,WeatherTracker,2017-02-26 22:44:00,
2017-02-26 14:49:00,59.5,52.6,29.91,South,180,4.0,0.0,78,0.00,,,0.01,WeatherTracker,2017-02-26 22:49:00,
2017-02-26 14:55:00,59.0,52.1,29.91,South,186,4.0,0.0,78,0.00,,,0.01,WeatherTracker,2017-02-26 22:55:00,
2017-02-26 15:00:00,58.7,53.2,29.91,SW,220,6.0,0.0,82,0.00,,,0.01,WeatherTracker,2017-02-26 23:00:00,
2017-02-26 15:05:00,58.0,53.2,29.91,SSW,203,5.0,0.0,84,0.01,,,0.02,WeatherTracker,2017-02-26 23:05:00,
2017-02-26 15:10:00,57.8,53.3,29.91,SSW,201,0.0,0.0,85,0.01,,,0.02,WeatherTracker,2017-02-26 23:10:00,
2017-02-26 15:15:00,58.0,53.2,29.91,WSW,257,14.0,0.0,84,0.01,,,0.02,WeatherTracker,2017-02-26 23:15:00,
2017-02-26 15:20:00,57.6,52.8,29.91,WSW,258,5.0,0.0,84,0.01,,,0.02,WeatherTracker,2017-02-26 23:20:00,
2017-02-26 15:25:00,57.2,52.7,29.91,WSW,253,5.0,0.0,85,0.02,,,0.03,WeatherTracker,2017-02-26 23:25:00,
2017-02-26 15:30:00,56.9,53.1,29.92,WSW,253,2.0,0.0,87,0.03,,,0.04,WeatherTracker,2017-02-26 23:30:00,
2017-02-26 15:35:00,56.7,52.9,29.92,SW,235,8.0,0.0,87,0.04,,,0.05,WeatherTracker,2017-02-26 23:35:00,
2017-02-26 15:40:00,56.7,53.2,29.92,West,261,5.0,0.0,88,0.04,,,0.05,WeatherTracker,2017-02-26 23:40:00,
2017-02-26 15:45:00,56.7,53.5,29.92,SW,225,4.0,0.0,89,0.06,,,0.07,WeatherTracker,2017-02-26 23:45:00,
2017-02-26 15:50:00,56.9,54.0,29.92,SW,225,2.0,0.0,90,0.06,,,0.07,WeatherTracker,2017-02-26 23:50:00,
2017-02-26 15:55:00,56.9,54.3,29.92,SW,225,0.0,0.0,91,0.06,,,0.07,WeatherTracker,2017-02-26 23:55:00,
2017-02-26 16:00:00,56.7,53.8,29.91,SW,225,0.0,0.0,90,0.06,,,0.07,WeatherTracker,2017-02-27 00:00:00,
2017-02-26 16:05:00,56.5,53.6,29.91,SW,225,1.0,0.0,90,0.05,,,0.07,WeatherTracker,2017-02-27 00:05:00,
2017-02-26 16:10:00,56.7,53.8,29.91,SW,222,2.0,0.0,90,0.05,,,0.07,WeatherTracker,2017-02-27 00:10:00,
2017-02-26 16:15:00,56.3,53.4,29.91,SW,236,5.0,0.0,90,0.05,,,0.07,WeatherTracker,2017-02-27 00:15:00,
2017-02-26 16:20:00,56.2,52.7,29.91,WSW,252,4.0,0.0,88,0.05,,,0.07,WeatherTracker,2017-02-27 00:20:00,
2017-02-26 16:25:00,56.2,52.1,29.91,West,267,6.0,0.0,86,0.04,,,0.07,WeatherTracker,2017-02-27 00:25:00,
2017-02-26 16:30:00,56.3,51.5,29.92,West,263,4.0,0.0,84,0.03,,,0.07,WeatherTracker,2017-02-27 00:30:00,
2017-02-26 16:35:00,56.5,51.4,29.92,SW,230,4.0,0.0,83,0.02,,,0.07,WeatherTracker,2017-02-27 00:35:00,
2017-02-26 16:40:00,56.6,51.2,29.92,West,266,6.0,0.0,82,0.01,,,0.07,WeatherTracker,2017-02-27 00:40:00,
2017-02-26 16:45:00,56.9,51.1,29.93,WSW,241,3.0,0.0,81,0.00,,,0.07,WeatherTracker,2017-02-27 00:45:00,
2017-02-26 16:50:00,57.2,51.1,29.93,WSW,242,2.0,0.0,80,0.00,,,0.07,WeatherTracker,2017-02-27 00:50:00,
2017-02-26 16:55:00,57.5,51.4,29.93,WSW,239,5.0,0.0,80,0.00,,,0.07,WeatherTracker,2017-02-27 00:55:00,
2017-02-26 17:00:00,57.3,50.5,29.93,WSW,240,4.0,0.0,78,0.00,,,0.07,WeatherTracker,2017-02-27 01:00:00,
2017-02-26 17:01:00,57.5,51.0,29.93,WSW,240,2.0,0.0,79,0.00,,,0.07,WeatherTracker,2017-02-27 01:01:00,
2017-02-26 17:07:00,57.6,50.8,29.93,WSW,240,1.0,0.0,78,0.00,,,0.07,WeatherTracker,2017-02-27 01:07:00,
2017-02-26 17:12:00,57.8,50.6,29.93,SW,227,6.0,0.0,77,0.00,,,0.07,WeatherTracker,2017-02-27 01:12:00,
2017-02-26 17:17:00,57.5,50.3,29.93,WSW,238,4.0,0.0,77,0.00,,,0.07,WeatherTracker,2017-02-27 01:17:00,
2017-02-26 17:22:00,57.2,50.1,29.93,WSW,238,4.0,0.0,77,0.00,,,0.07,WeatherTracker,2017-02-27 01:22:00,
2017-02-26 17:27:00,56.9,49.8,29.93,WSW,238,5.0,0.0,77,0.00,,,0.07,WeatherTracker,2017-02-27 01:27:00,
2017-02-26 17:32:00,56.7,49.6,29.93,WSW,238,3.0,0.0,77,0.00,,,0.07,WeatherTracker,2017-02-27 01:32:00,
2017-02-26 17:37:00,56.6,49.5,29.93,WSW,244,2.0,0.0,77,0.00,,,0.07,WeatherTracker,2017-02-27 01:37:00,
2017-02-26 17:42:00,56.3,49.2,29.93,WSW,244,3.0,0.0,77,0.00,,,0.07,WeatherTracker,2017-02-27 01:42:00,
2017-02-26 17:47:00,56.6,49.8,29.93,WSW,244,2.0,0.0,78,0.00,,,0.07,WeatherTracker,2017-02-27 01:47:00,
2017-02-26 17:52:00,56.6,49.8,29.93,WSW,244,0.0,0.0,78,0.00,,,0.07,WeatherTracker,2017-02-27 01:52:00,
2017-02-26 17:57:00,56.2,49.8,29.93,WSW,244,0.0,0.0,79,0.00,,,0.07,WeatherTracker,2017-02-27 01:57:00,
2017-02-26 18:02:00,55.9,50.2,29.93,WSW,244,1.0,0.0,81,0.00,,,0.07,WeatherTracker,2017-02-27 02:02:00,
2017-02-26 18:07:00,55.7,50.3,29.93,WSW,244,0.0,0.0,82,0.00,,,0.07,WeatherTracker,2017-02-27 02:07:00,
2017-02-26 18:12:00,55.4,50.0,29.93,WSW,244,0.0,0.0,82,0.00,,,0.07,WeatherTracker,2017-02-27 02:12:00,
2017-02-26 18:17:00,55.3,50.2,29.93,WSW,244,0.0,0.0,83,0.00,,,0.07,WeatherTracker,2017-02-27 02:17:00,
2017-02-26 18:22:00,55.0,50.3,29.93,WSW,244,0.0,0.0,84,0.00,,,0.07,WeatherTracker,2017-02-27 02:22:00,
2017-02-26 18:27:00,54.8,50.1,29.93,WSW,244,0.0,0.0,84,0.00,,,0.07,WeatherTracker,2017-02-27 02:27:00,
2017-02-26 18:32:00,54.7,50.3,29.93,WSW,244,0.0,0.0,85,0.00,,,0.07,WeatherTracker,2017-02-27 02:32:00,
2017-02-26 18:37:00,54.5,50.1,29.93,WSW,244,0.0,0.0,85,0.00,,,0.07,WeatherTracker,2017-02-27 02:37:00,
2017-02-26 18:42:00,54.4,50.0,29.93,WSW,244,0.0,0.0,85,0.00,,,0.07,WeatherTracker,2017-02-27 02:42:00,
2017-02-26 18:47:00,54.2,49.8,29.93,WSW,244,0.0,0.0,85,0.00,,,0.07,WeatherTracker,2017-02-27 02:47:00,
2017-02-26 18:52:00,54.2,50.1,29.93,WSW,244,0.0,0.0,86,0.00,,,0.07,WeatherTracker,2017-02-27 02:52:00,
2017-02-26 18:57:00,54.1,50.0,29.93,WSW,244,0.0,0.0,86,0.00,,,0.07,WeatherTracker,2017-02-27 02:57:00,
2017-02-26 19:02:00,54.1,50.0,29.93,WSW,244,0.0,0.0,86,0.00,,,0.07,WeatherTracker,2017-02-27 03:02:00,
2017-02-26 19:07:00,54.2,50.4,29.93,WSW,244,3.0,0.0,87,0.00,,,0.07,WeatherTracker,2017-02-27 03:07:00,
2017-02-26 19:13:00,54.2,50.4,29.93,WSW,244,0.0,0.0,87,0.00,,,0.07,WeatherTracker,2017-02-27 03:13:00,
2017-02-26 19:18:00,54.2,50.7,29.94,WSW,244,0.0,0.0,88,0.00,,,0.07,WeatherTracker,2017-02-27 03:18:00,
2017-02-26 19:20:00,54.2,50.7,29.94,WSW,244,0.0,0.0,88,0.00,,,0.07,WeatherTracker,2017-02-27 03:20:00,
2017-02-26 19:26:00,54.2,50.7,29.94,WSW,244,0.0,0.0,88,0.00,,,0.07,WeatherTracker,2017-02-27 03:26:00,
2017-02-26 19:31:00,54.1,50.9,29.95,WSW,244,0.0,0.0,89,0.00,,,0.07,WeatherTracker,2017-02-27 03:31:00,
2017-02-26 19:36:00,53.9,50.7,29.95,WSW,244,0.0,0.0,89,0.00,,,0.07,WeatherTracker,2017-02-27 03:36:00,
2017-02-26 19:41:00,53.8,50.6,29.95,WSW,244,0.0,0.0,89,0.00,,,0.07,WeatherTracker,2017-02-27 03:41:00,
2017-02-26 19:46:00,53.9,51.0,29.95,WSW,244,1.0,0.0,90,0.00,,,0.07,WeatherTracker,2017-02-27 03:46:00,
2017-02-26 19:51:00,53.9,51.0,29.95,WSW,244,2.0,0.0,90,0.00,,,0.07,WeatherTracker,2017-02-27 03:51:00,
2017-02-26 19:56:00,53.8,50.9,29.95,WSW,244,0.0,0.0,90,0.00,,,0.07,WeatherTracker,2017-02-27 03:56:00,
2017-02-26 20:01:00,53.8,50.9,29.95,WSW,244,0.0,0.0,90,0.00,,,0.07,WeatherTracker,2017-02-27 04:01:00,
2017-02-26 20:06:00,53.8,50.9,29.95,SSE,149,0.0,0.0,90,0.00,,,0.07,WeatherTracker,2017-02-27 04:06:00,
2017-02-26 20:11:00,53.6,51.0,29.95,SSE,149,0.0,0.0,91,0.00,,,0.07,WeatherTracker,2017-02-27 04:11:00,
2017-02-26 20:16:00,53.6,51.0,29.95,SSE,149,0.0,0.0,91,0.00,,,0.07,WeatherTracker,2017-02-27 04:16:00,
2017-02-26 20:21:00,53.6,51.0,29.95,SSE,149,0.0,0.0,91,0.00,,,0.07,WeatherTracker,2017-02-27 04:21:00,
2017-02-26 20:26:00,53.8,51.2,29.95,SSE,149,0.0,0.0,91,0.00,,,0.07,WeatherTracker,2017-02-27 04:26:00,
2017-02-26 20:31:00,53.9,51.3,29.95,SSE,149,0.0,0.0,91,0.00,,,0.07,WeatherTracker,2017-02-27 04:31:00,